Swansboro, NC

9:31 PM EST on February 07, 2016 (GMT -0500)
Bogue McAlf

Weather History for KNJM - December, 2011

Change the Weather History Date:

Wednesday, December 28, 2011

  Actual Average (KNKT) Record (KNKT)
Temperature  
Mean Temperature 46 °F -  
Max Temperature 53 °F 53 °F 73 °F (2008)
Min Temperature 39 °F 33 °F 25 °F (2010)
Degree Days  
Heating Degree Days 19    
Moisture  
Dew Point 32 °F    
Average Humidity 59    
Maximum Humidity 73    
Minimum Humidity 38    
Precipitation  
Precipitation 0.00 in - - ()
Sea Level Pressure  
Sea Level Pressure 29.94 in    
Wind  
Wind Speed 8 mph (WNW)    
Max Wind Speed 15 mph    
Max Gust Speed 22 mph    
Visibility 10 miles    
Events      
Averages and records for this station are not official NWS values.
T = Trace of Precipitation, MM = Missing Value Source: NWS Daily Summary

Daily Weather History Graph

Daily Weather History Graph

Search for Another Location

Airport or City:

Trip Planner

Search our weather history database for the weather conditions in past years. The results will help you decide how hot, cold, wet, or windy it might be!

Date:

Astronomy

Dec. 28, 2011 Rise Set
Actual Time 7:14 AM EST 5:05 PM EST
Civil Twilight 6:46 AM EST 5:33 PM EST
Nautical Twilight 6:14 AM EST 6:04 PM EST
Astronomical Twilight 5:43 AM EST 6:35 PM EST
Moon 9:48 AM EST (12/28) 9:28 PM EST (12/28)
Length of Visible Light 10h 46m
Length of Day
9h 50m
Waxing Crescent, 18% of the Moon is Illuminated
Dec 28
Waxing Crescent
Jan 1
First Quarter
Jan 9
Full
Jan 16
Last Quarter
Jan 23
New

Hourly Weather History & Observations

Time (EST) Temp. Windchill Dew Point Humidity Pressure Visibility Wind Dir Wind Speed Gust Speed Precip Events Conditions
12:57 AM 50.0 °F - 37.9 °F 63% 29.73 in - West 8.1 mph 21.9 mph N/A   Clear
1:57 AM 48.0 °F - 37.9 °F 68% 29.74 in - West 10.4 mph 18.4 mph N/A   Clear
2:57 AM 46.9 °F - 37.0 °F 68% 29.76 in - West 9.2 mph 17.3 mph N/A   Clear
3:57 AM 46.0 °F 41.4 °F 37.0 °F 71% 29.78 in - West 9.2 mph 17.3 mph N/A   Clear
4:57 AM 45.0 °F 40.1 °F 35.1 °F 68% 29.82 in - West 9.2 mph 18.4 mph N/A   Clear
5:57 AM 45.0 °F 39.3 °F 34.0 °F 65% 29.86 in - West 11.5 mph 20.7 mph N/A   Clear
6:57 AM 44.1 °F 39.0 °F 33.1 °F 65% 29.89 in - West 9.2 mph - N/A   Clear
7:57 AM 44.1 °F 38.6 °F 32.0 °F 63% 29.93 in 10.0 mi West 10.4 mph 18.4 mph N/A   Clear
8:57 AM 46.0 °F 41.4 °F 30.9 °F 56% 29.95 in 10.0 mi WNW 9.2 mph 21.9 mph N/A   Clear
9:57 AM 48.9 °F - 30.9 °F 50% 29.98 in 10.0 mi WNW 13.8 mph 19.6 mph N/A   Clear
10:57 AM 50.0 °F - 30.0 °F 46% 29.96 in 10.0 mi WNW 15.0 mph 20.7 mph N/A   Clear
11:57 AM 52.0 °F - 28.0 °F 40% 29.95 in 10.0 mi West 11.5 mph 20.7 mph N/A   Clear
12:57 PM 52.0 °F - 27.0 °F 38% 29.94 in 10.0 mi NW 11.5 mph 21.9 mph N/A   Clear
1:57 PM 53.1 °F - 28.0 °F 38% 29.94 in 10.0 mi WNW 11.5 mph 19.6 mph N/A   Clear
2:57 PM - - - N/A% - 10.0 mi Variable 6.9 mph - N/A   Unknown
3:57 PM 53.1 °F - 28.9 °F 40% 29.97 in 10.0 mi West 4.6 mph - N/A   Clear
4:57 PM 50.0 °F - 30.0 °F 46% 29.98 in 10.0 mi WNW 3.5 mph - N/A   Clear
5:57 PM 44.1 °F - 32.0 °F 63% 30.02 in 10.0 mi Calm Calm - N/A   Clear
6:57 PM 44.1 °F 41.5 °F 32.0 °F 63% 30.04 in 10.0 mi West 4.6 mph - N/A   Clear
7:57 PM 41.0 °F - 30.9 °F 67% 30.06 in 10.0 mi Calm Calm - N/A   Clear
8:57 PM 39.9 °F 37.8 °F 32.0 °F 73% 30.08 in 10.0 mi West 3.5 mph - N/A   Clear
9:57 PM 39.9 °F 37.8 °F 32.0 °F 73% 30.09 in 10.0 mi West 3.5 mph - N/A   Clear
10:57 PM 43.0 °F 40.3 °F 32.0 °F 65% 30.10 in 10.0 mi West 4.6 mph - N/A   Clear
11:57 PM 41.0 °F 39.0 °F 30.9 °F 67% 30.09 in 10.0 mi WNW 3.5 mph - N/A   Clear